Regional Weather Roundup
Issued by NWS State College, PA

Home | Current Version | Previous Version | Text Only | Print | Product List | Glossary On
Versions: 1 2 3 4 5 6 7 8 9 10 11 12 13 14 15 16 17 18 19 20 21 22 23 24 25 26 27 28 29 30 31 32 33 34 35 36 37 38 39 40 41 42 43 44 45 46 47 48 49 50
000
ASUS41 KCTP 281410
RWRCTP

REGIONAL WEATHER ROUNDUP
NATIONAL WEATHER SERVICE STATE COLLEGE PA
900 AM EST SAT FEB 28 2015

Note: "fair" indicates few or no clouds below 12,000 feet with no
significant weather and/or obstructions to visibility.

* = STATION THAT DOES NOT REPORT PRECIPITATION /E.G. RAIN...SNOW...ETC/
    THUNDER OR FOG.

PAZ002>004-007>009-013>016-020>023-029>032-281500-
WESTERN PENNSYLVANIA

CITY           SKY/WX    TMP DP  RH WIND       PRES   REMARKS
ERIE           MOSUNNY    5  -5  63 S7        30.77S WCI  -7
MEADVILLE        N/A      7   0  73 S3        30.70R
FRANKLIN*      MOSUNNY   -6  -9  84 CALM      30.71R
NEW CASTLE     FAIR      -3  -7  83 CALM      30.78R
BEAVER COUNTY  SUNNY      9  -2  61 CALM      30.73R
BUTLER*        SUNNY     -2  -6  84 CALM      30.75R
PITTSBURGH INT MOSUNNY    7   1  76 CALM      30.73R
PITTSBURGH     SUNNY     10   0  63 E3        30.73R HAZE
INDIANA*       SUNNY      3  -6  66 CALM      30.76R
LATROBE        MOSUNNY    7   0  72 CALM      30.76R
WASHINGTON CO* SUNNY      7   3  85 CALM      30.75R
$$

PAZ004>006-010>012-017>019-024>028-033>037-041-042-045-046-049>053-281500-
CENTRAL PENNSYLVANIA

CITY           SKY/WX    TMP DP  RH WIND       PRES   REMARKS
BRADFORD       MOSUNNY   -1  -6  79 CALM      30.63R
DUBOIS         SUNNY      1  -7  68 E3        30.67R
CLEARFIELD     MOSUNNY   -1  -4  87 CALM      30.72R FOG
JOHNSTOWN      SUNNY      8  -4  58 CALM      30.61R
ALTOONA        SUNNY      9  -2  61 CALM      30.71R
STATE COLLEGE  SUNNY      5  -4  66 CALM      30.75R
WILLIAMSPORT   SUNNY     13  -4  46 W9        30.83R WCI   1
SELINSGROVE    SUNNY     10   2  69 CALM      30.83R
FT INDIANTOWN  SUNNY     17  -6  35 CALM      30.81R
CAPITAL CITY   SUNNY     17  -2  43 N7        30.83R WCI   8
HARRISBURG     MOSUNNY   21   1  41 N7        30.82R WCI  12
YORK           SUNNY     16  -1  47 CALM      30.81R
$$

PAZ038>040-043-044-047-048-054-055-060>062-067>071-281500-
EASTERN PENNSYLVANIA

CITY           SKY/WX    TMP DP  RH WIND       PRES   REMARKS
SCRANTON       SUNNY     11  -5  48 CALM      30.77R
MOUNT POCONO     N/A    N/A N/A N/A MISG      30.63R
ALLENTOWN      SUNNY     13  -5  44 N6        30.81R WCI   4
QUAKERTOWN*    SUNNY     14  -2  48 N7        30.80S WCI   4
READING        SUNNY     15  -5  40 N5        30.82R WCI   8
LANCASTER      SUNNY     16  -3  43 N8        30.81R WCI   5
COATESVILLE    SUNNY     18   0  45 NW5       30.80R WCI  11
POTTSTOWN      SUNNY     16  -5  39 N7        30.83R WCI   6
BLUE BELL      SUNNY     19   0  42 NW3       30.81R
DOYLESTOWN     SUNNY     14  -3  47 N5        30.80R WCI   6
WILLOW GROVE   NOT AVBL
NORTH PHILA    SUNNY     19  -4  36 N7        30.85R WCI  10
PHILADELPHIA   MOSUNNY   20  -2  38 N9        30.86R WCI   9
$$


USA.gov is the U.S. government's official web portal to all federal, state and local government web resources and services.